User: anonymous   Login
Location: Lourdes
(43.1000°N, 0.0500°W)
Time: 21:04:21
(UTC+00:00)
Language:

Cosmos 1151 Rocket - Orbit

View from above orbital plane
View from above orbital plane
View from above satellite
View from above satellite

Ground track
Ground track

The orbit data is extracted from the following two-line orbital elements,

1 11672U 80005B   21055.50383518  .00000131  00000-0  11459-4 0  9995
2 11672  82.5127 246.5789 0017294 155.8736 204.3295 14.88031907202788
Epoch (UTC): 24 February 2021 12:05:31
Eccentricity: 0.0017294
inclination: 82.5127°
perigee height: 592 km
apogee height: 616 km
right ascension of ascending node: 246.5789°
argument of perigee: 155.8736°
revolutions per day: 14.88031907
mean anomaly at epoch: 204.3295°
orbit number at epoch: 20278

The dashed part of the orbit path shows where the satellite is in the earth's shadow,  

DLR